Location: Newark
(0.5333°S, 166.9167°E)
Time: 11:04:10
(UTC+00:00)

Hubble Space Telescope - Visible Passes

Search period start: 20 March 2019 00:00
Search period end: 30 March 2019 00:00
Orbit: 537 x 540 km, 28.5° (Epoch: 19 March)

Date Brightness Start Highest point End Pass type
(mag) Time Alt. Az. Time Alt. Az. Time Alt. Az.
20 Mar 2.7 08:05:52 10° W 08:09:14 24° NNW 08:12:12 12° NNE visible
20 Mar 1.4 18:18:56 10° NW 18:22:58 53° NNE 18:27:00 10° ESE visible
21 Mar 3.2 07:55:59 10° WNW 07:58:47 17° NNW 08:01:35 10° NNE visible
21 Mar 0.8 18:09:00 14° NW 18:12:29 78° NNE 18:16:37 10° ESE visible
22 Mar 3.4 07:46:27 10° NW 07:48:22 13° NNW 07:50:16 10° N visible
22 Mar 0.7 17:59:40 24° WNW 18:02:01 72° SSW 18:06:08 10° SE visible
23 Mar 1.1 17:50:20 36° W 17:51:32 49° SSW 17:55:33 10° SE visible
24 Mar 1.5 17:40:59 34° SSW 17:41:05 34° SSW 17:44:52 10° SE visible
25 Mar 2.4 17:31:34 23° S 17:31:34 23° S 17:34:03 10° SSE visible
26 Mar 3.1 17:22:06 14° S 17:22:06 14° S 17:23:06 10° SSE visible
